Find Kosmos-763

NORAD ID: 8287 Int'l Des: 1975-086 Owner: GUKOSR Country: SU operational
LEOCIRCULAR

Live Position

Loading 3D Globe...

About Kosmos-763

Description loading...

Upcoming Passes

Passes for default location (London). Set your location on the main map for personalized predictions.

Altitude History

Loading altitude history...

Two-Line Element Set

1 8287U 75086C 26104.57676225 .00000010 00000-0 18137-3 0 9998
2 8287 74.0090 313.3534 0023039 194.7245 197.2811 12.43562821295850
Epoch: Apr 14, 2026 • Age: 3 hours

Current Status

Altitude 1482.5 km
Velocity 7.13 km/s
Sub-Earth Point 30.87°N, 34.62°E
Type other

Most Searched